When you browse on this site, cookies collect data to enhance your experience and personalize the content and advertising you see.
Visit our Privacy Policy to learn more. By continuing to use the site, you agree to this use of cookies and data.

Hourly Weather Aracaju

Today, 20 September, Sunday

Time Temperature Precipitation Wind Pressure Humidity
00:00 +25°C° 0.1 mm 4 mps 760 mmHg 88%
01:00 +23°C° 0.1 mm 4 mps 760 mmHg 89%
02:00 +23°C° 0.4 mm 4 mps 760 mmHg 89%
03:00 +24°C° 0.4 mm 3 mps 759 mmHg 89%
04:00 +24°C° 0 mm 3 mps 759 mmHg 89%
05:00 +24°C° 0.3 mm 3 mps 759 mmHg 88%
06:00 +24°C° 0.3 mm 3 mps 759 mmHg 88%
07:00 +24°C° 0.3 mm 3 mps 760 mmHg 87%
08:00 +26°C° 0.1 mm 3 mps 760 mmHg 81%
09:00 +27°C° 0.1 mm 3 mps 760 mmHg 75%
10:00 +28°C° 0.1 mm 3 mps 761 mmHg 69%
11:00 +29°C° 0 mm 4 mps 760 mmHg 66%
12:00 +29°C° 0 mm 4 mps 760 mmHg 64%
13:00 +30°C° 0 mm 4 mps 759 mmHg 61%
14:00 +29°C° 0 mm 4 mps 759 mmHg 64%
15:00 +29°C° 0 mm 4 mps 758 mmHg 66%
16:00 +28°C° 0 mm 4 mps 758 mmHg 68%
17:00 +28°C° 0 mm 4 mps 758 mmHg 74%
18:00 +27°C° 0 mm 4 mps 758 mmHg 79%
19:00 +26°C° 0 mm 4 mps 759 mmHg 84%
20:00 +26°C° 0 mm 4 mps 759 mmHg 85%
21:00 +25°C° 0 mm 3 mps 760 mmHg 87%
22:00 +25°C° 0 mm 3 mps 760 mmHg 88%
23:00 +25°C° 0.1 mm 3 mps 760 mmHg 89%

Tomorrow, 21 September, Monday

Time Temperature Precipitation Wind Pressure Humidity
00:00 +25°C° 0.1 mm 3 mps 760 mmHg 89%
01:00 +25°C° 0.1 mm 3 mps 759 mmHg 90%
02:00 +25°C° 0.2 mm 3 mps 759 mmHg 90%
03:00 +25°C° 0.2 mm 3 mps 759 mmHg 90%
04:00 +25°C° 0.2 mm 3 mps 758 mmHg 90%
05:00 +25°C° 0.3 mm 3 mps 759 mmHg 91%
06:00 +25°C° 0.3 mm 3 mps 759 mmHg 91%
07:00 +25°C° 0.3 mm 4 mps 760 mmHg 91%
08:00 +26°C° 0.4 mm 4 mps 760 mmHg 87%
09:00 +27°C° 0.4 mm 4 mps 760 mmHg 82%
10:00 +28°C° 0.4 mm 5 mps 761 mmHg 78%
11:00 +29°C° 0.3 mm 5 mps 760 mmHg 76%
12:00 +29°C° 0.3 mm 6 mps 760 mmHg 75%
13:00 +29°C° 0.3 mm 6 mps 759 mmHg 73%
14:00 +29°C° 0.1 mm 7 mps 759 mmHg 73%
15:00 +29°C° 0.1 mm 7 mps 758 mmHg 72%
16:00 +29°C° 0.1 mm 7 mps 758 mmHg 72%
17:00 +28°C° 0 mm 7 mps 758 mmHg 75%
18:00 +28°C° 0 mm 6 mps 759 mmHg 79%
19:00 +27°C° 0 mm 6 mps 759 mmHg 83%
20:00 +27°C° 0 mm 6 mps 760 mmHg 83%
21:00 +27°C° 0 mm 6 mps 760 mmHg 84%
22:00 +26°C° 0 mm 6 mps 761 mmHg 84%
23:00 +26°C° 0.1 mm 6 mps 760 mmHg 85%

Day after tomorrow, 22 September, Tuesday

Time Temperature Precipitation Wind Pressure Humidity
00:00 +26°C° 0.1 mm 5 mps 760 mmHg 87%
01:00 +26°C° 0.1 mm 5 mps 760 mmHg 88%
02:00 +26°C° 0.1 mm 5 mps 760 mmHg 88%
03:00 +25°C° 0.1 mm 5 mps 760 mmHg 88%
04:00 +25°C° 0.1 mm 4 mps 759 mmHg 88%
05:00 +25°C° 0.1 mm 4 mps 760 mmHg 88%
06:00 +25°C° 0.1 mm 4 mps 760 mmHg 87%
07:00 +26°C° 0.1 mm 4 mps 760 mmHg 86%
08:00 +27°C° 0 mm 4 mps 761 mmHg 81%
09:00 +28°C° 0 mm 5 mps 762 mmHg 75%
10:00 +29°C° 0 mm 5 mps 762 mmHg 70%
11:00 +29°C° 0.1 mm 5 mps 762 mmHg 68%
12:00 +30°C° 0.1 mm 5 mps 761 mmHg 67%
13:00 +30°C° 0.1 mm 6 mps 761 mmHg 65%
14:00 +30°C° 0.1 mm 6 mps 761 mmHg 68%
15:00 +29°C° 0.1 mm 6 mps 760 mmHg 70%
16:00 +29°C° 0.1 mm 6 mps 760 mmHg 72%
17:00 +28°C° 0 mm 5 mps 760 mmHg 76%
18:00 +27°C° 0 mm 5 mps 761 mmHg 80%
19:00 +26°C° 0 mm 4 mps 761 mmHg 84%
20:00 +26°C° 0 mm 4 mps 761 mmHg 85%
21:00 +26°C° 0 mm 4 mps 762 mmHg 86%
22:00 +25°C° 0 mm 4 mps 762 mmHg 86%
23:00 +25°C° 0 mm 4 mps 762 mmHg 86%

23 September, Wednesday

Time Temperature Precipitation Wind Pressure Humidity
00:00 +25°C° 0 mm 4 mps 762 mmHg 86%
01:00 +25°C° 0 mm 4 mps 762 mmHg 86%
02:00 +25°C° 0.1 mm 4 mps 761 mmHg 87%
03:00 +25°C° 0.1 mm 4 mps 761 mmHg 87%
04:00 +25°C° 0.1 mm 4 mps 761 mmHg 88%
05:00 +25°C° 0.2 mm 4 mps 761 mmHg 87%
06:00 +25°C° 0.2 mm 4 mps 761 mmHg 86%
07:00 +25°C° 0.2 mm 4 mps 761 mmHg 85%
08:00 +26°C° 0.1 mm 5 mps 762 mmHg 79%
09:00 +27°C° 0.1 mm 5 mps 762 mmHg 73%
10:00 +29°C° 0.1 mm 6 mps 762 mmHg 66%
11:00 +29°C° 0.1 mm 5 mps 762 mmHg 66%
12:00 +29°C° 0.1 mm 5 mps 762 mmHg 65%
13:00 +29°C° 0.1 mm 5 mps 761 mmHg 64%
14:00 +29°C° 0.1 mm 5 mps 761 mmHg 66%
15:00 +29°C° 0.1 mm 5 mps 761 mmHg 67%
16:00 +28°C° 0.1 mm 5 mps 761 mmHg 69%
17:00 +27°C° 0.1 mm 5 mps 761 mmHg 74%
18:00 +26°C° 0.1 mm 4 mps 761 mmHg 78%
19:00 +25°C° 0.1 mm 4 mps 761 mmHg 83%
20:00 +25°C° 0.1 mm 4 mps 762 mmHg 84%
21:00 +25°C° 0.1 mm 4 mps 762 mmHg 86%
22:00 +25°C° 0.1 mm 4 mps 762 mmHg 87%
23:00 +25°C° 0.1 mm 4 mps 762 mmHg 88%

24 September, Thursday

Time Temperature Precipitation Wind Pressure Humidity
00:00 +25°C° 0.1 mm 4 mps 762 mmHg 88%
01:00 +23°C° 0.1 mm 4 mps 762 mmHg 88%
02:00 +23°C° 0.1 mm 4 mps 762 mmHg 88%
03:00 +24°C° 0.1 mm 3 mps 761 mmHg 88%
04:00 +24°C° 0.1 mm 3 mps 761 mmHg 88%
05:00 +24°C° 0.3 mm 3 mps 761 mmHg 87%
06:00 +25°C° 0.3 mm 4 mps 761 mmHg 86%
07:00 +25°C° 0.3 mm 4 mps 762 mmHg 85%
08:00 +26°C° 0.1 mm 4 mps 762 mmHg 80%
09:00 +27°C° 0.1 mm 5 mps 762 mmHg 75%
10:00 +28°C° 0.1 mm 5 mps 762 mmHg 70%
11:00 +28°C° 0.1 mm 5 mps 762 mmHg 68%
12:00 +29°C° 0.1 mm 5 mps 761 mmHg 66%
13:00 +29°C° 0.1 mm 5 mps 761 mmHg 64%
14:00 +29°C° 0 mm 5 mps 760 mmHg 64%
15:00 +28°C° 0 mm 5 mps 760 mmHg 65%
16:00 +28°C° 0 mm 5 mps 759 mmHg 66%
17:00 +27°C° 0 mm 4 mps 760 mmHg 71%
18:00 +26°C° 0 mm 4 mps 760 mmHg 75%
19:00 +25°C° 0 mm 4 mps 761 mmHg 79%
20:00 +25°C° 0.2 mm 4 mps 761 mmHg 81%
21:00 +25°C° 0.2 mm 4 mps 762 mmHg 82%
22:00 +25°C° 0.2 mm 4 mps 762 mmHg 83%
23:00 +25°C° 0.1 mm 3 mps 762 mmHg 84%

25 September, Friday

Time Temperature Precipitation Wind Pressure Humidity
00:00 +24°C° 0.1 mm 3 mps 761 mmHg 85%
01:00 +24°C° 0.1 mm 3 mps 761 mmHg 86%
02:00 +24°C° 0.1 mm 3 mps 761 mmHg 86%
03:00 +24°C° 0.1 mm 3 mps 760 mmHg 87%
04:00 +24°C° 0.1 mm 3 mps 760 mmHg 87%
05:00 +24°C° 0.3 mm 3 mps 760 mmHg 87%
06:00 +23°C° 0.3 mm 4 mps 761 mmHg 87%
07:00 +25°C° 0.3 mm 4 mps 761 mmHg 86%
08:00 +26°C° 0.1 mm 4 mps 761 mmHg 80%
09:00 +27°C° 0.1 mm 5 mps 762 mmHg 75%
10:00 +28°C° 0.1 mm 5 mps 762 mmHg 69%
11:00 +28°C° 0 mm 5 mps 761 mmHg 67%
12:00 +29°C° 0 mm 5 mps 761 mmHg 65%
13:00 +29°C° 0 mm 5 mps 761 mmHg 63%
14:00 +29°C° 0 mm 5 mps 760 mmHg 64%
15:00 +28°C° 0 mm 5 mps 760 mmHg 65%
16:00 +28°C° 0 mm 4 mps 759 mmHg 66%
17:00 +27°C° 0.1 mm 4 mps 760 mmHg 71%
18:00 +26°C° 0.1 mm 4 mps 760 mmHg 76%
19:00 +25°C° 0.1 mm 4 mps 760 mmHg 81%
20:00 +25°C° 0.1 mm 4 mps 761 mmHg 82%
21:00 +23°C° 0.1 mm 4 mps 761 mmHg 83%
22:00 +23°C° 0.1 mm 4 mps 761 mmHg 84%
23:00 +24°C° 0 mm 3 mps 761 mmHg 84%
Show more